| time (UTC) | temp C | wind direction | speed KPH | gust KPH | rain 1hr cm | rain 24hr cm | rain mn cm | humidity % | barometer mb |
| 20260505114519 | 12 | 312 | 1.6 | 3.2 | 0.00 | 0.00 | 0.00 | 90 | 1017.7 |
| 20260505114015 | 12 | 306 | 3.2 | 3.2 | 0.00 | 0.00 | 0.00 | 91 | 1017.7 |
| 20260505113512 | 12 | 289 | 3.2 | 4.8 | 0.00 | 0.00 | 0.00 | 91 | 1017.6 |
| 20260505113008 | 12 | 295 | 3.2 | 4.8 | 0.00 | 0.00 | 0.00 | 91 | 1017.4 |
| 20260505112504 | 11 | 304 | 3.2 | 4.8 | 0.00 | 0.00 | 0.00 | 91 | 1017.5 |
| 20260505112002 | 11 | 296 | 3.2 | 4.8 | 0.00 | 0.00 | 0.00 | 91 | 1017.4 |
| 20260505111456 | 11 | 298 | 4.8 | 4.8 | 0.00 | 0.00 | 0.00 | 91 | 1017.3 |
| 20260505110952 | 11 | 298 | 4.8 | 4.8 | 0.00 | 0.00 | 0.00 | 91 | 1017.4 |
| 20260505110449 | 11 | 293 | 3.2 | 4.8 | 0.00 | 0.00 | 0.00 | 91 | 1017.4 |
| 20260505101921 | 12 | 299 | 3.2 | 3.2 | 0.00 | 0.00 | 0.00 | 90 | 1016.7 |
| 20260505101421 | 11 | 296 | 3.2 | 4.8 | 0.00 | 0.00 | 0.00 | 90 | 1016.9 |
| 20260505100916 | 12 | 303 | 3.2 | 3.2 | 0.00 | 0.00 | 0.00 | 90 | 1016.7 |
| 20260505100413 | 12 | 293 | 3.2 | 3.2 | 0.00 | 0.00 | 0.00 | 89 | 1016.7 |
| 20260505095909 | 12 | 303 | 3.2 | 3.2 | 0.00 | 0.00 | 0.00 | 89 | 1016.4 |
| 20260505095406 | 12 | 292 | 3.2 | 3.2 | 0.00 | 0.00 | 0.00 | 89 | 1016.4 |
| 20260505094902 | 12 | 297 | 3.2 | 3.2 | 0.00 | 0.00 | 0.00 | 90 | 1016.7 |
| 20260505094400 | 12 | 303 | 1.6 | 3.2 | 0.00 | 0.00 | 0.00 | 89 | 1016.3 |
| 20260505093855 | 12 | 292 | 1.6 | 3.2 | 0.00 | 0.00 | 0.00 | 89 | 1016.6 |
| 20260505093353 | 12 | 304 | 1.6 | 3.2 | 0.00 | 0.00 | 0.00 | 90 | 1016.6 |
| 20260505092850 | 12 | 292 | 3.2 | 3.2 | 0.00 | 0.00 | 0.00 | 90 | 1016.7 |
| 20260505092348 | 12 | 293 | 1.6 | 3.2 | 0.00 | 0.00 | 0.00 | 90 | 1016.8 |
| 20260505091845 | 12 | 235 | 0.0 | 3.2 | 0.00 | 0.00 | 0.00 | 90 | 1016.7 |
| 20260505091343 | 12 | 277 | 1.6 | 3.2 | 0.00 | 0.00 | 0.00 | 90 | 1017.0 |
| 20260505090841 | 11 | 289 | 3.2 | 3.2 | 0.00 | 0.00 | 0.00 | 90 | 1016.7 |
| 20260505090339 | 11 | 294 | 3.2 | 3.2 | 0.00 | 0.00 | 0.00 | 89 | 1016.7 |
| 20260505085835 | 11 | 294 | 3.2 | 3.2 | 0.00 | 0.00 | 0.00 | 89 | 1016.8 |
| 20260505085333 | 11 | 301 | 3.2 | 3.2 | 0.00 | 0.00 | 0.00 | 88 | 1016.8 |
| 20260505084831 | 11 | 296 | 3.2 | 4.8 | 0.00 | 0.00 | 0.00 | 88 | 1016.5 |
| 20260505084329 | 11 | 308 | 3.2 | 4.8 | 0.00 | 0.00 | 0.00 | 88 | 1016.6 |
| 20260505083826 | 11 | 302 | 3.2 | 4.8 | 0.00 | 0.00 | 0.00 | 88 | 1016.9 |
| 20260505083324 | 12 | 287 | 3.2 | 4.8 | 0.00 | 0.00 | 0.00 | 88 | 1016.8 |
| 20260505082820 | 11 | 289 | 3.2 | 4.8 | 0.00 | 0.00 | 0.00 | 88 | 1016.7 |
| 20260505082316 | 11 | 307 | 3.2 | 4.8 | 0.00 | 0.00 | 0.00 | 87 | 1016.9 |
| 20260505081813 | 12 | 284 | 3.2 | 4.8 | 0.00 | 0.00 | 0.00 | 87 | 1016.7 |
| 20260505081310 | 12 | 289 | 3.2 | 4.8 | 0.00 | 0.00 | 0.00 | 87 | 1016.9 |
| 20260505080806 | 12 | 283 | 3.2 | 4.8 | 0.00 | 0.00 | 0.00 | 86 | 1017.0 |
| 20260505080302 | 12 | 295 | 4.8 | 4.8 | 0.00 | 0.00 | 0.00 | 86 | 1016.8 |
| 20260505075758 | 12 | 296 | 3.2 | 4.8 | 0.00 | 0.00 | 0.00 | 85 | 1016.9 |
| 20260505075255 | 12 | 286 | 3.2 | 3.2 | 0.00 | 0.00 | 0.00 | 86 | 1016.6 |
| 20260505074752 | 12 | 290 | 3.2 | 4.8 | 0.00 | 0.00 | 0.00 | 85 | 1016.9 |
| 20260505074249 | 12 | 301 | 3.2 | 4.8 | 0.00 | 0.00 | 0.00 | 86 | 1016.8 |
| 20260505073747 | 12 | 304 | 3.2 | 4.8 | 0.00 | 0.00 | 0.00 | 84 | 1016.8 |
| 20260505073245 | 12 | 303 | 3.2 | 3.2 | 0.00 | 0.00 | 0.00 | 83 | 1016.8 |
| 20260505072741 | 12 | 303 | 3.2 | 4.8 | 0.00 | 0.00 | 0.00 | 83 | 1016.6 |
| 20260505072237 | 13 | 315 | 3.2 | 3.2 | 0.00 | 0.00 | 0.00 | 83 | 1016.9 |
| 20260505071733 | 13 | 295 | 3.2 | 3.2 | 0.00 | 0.00 | 0.00 | 84 | 1017.0 |
| 20260505071230 | 13 | 303 | 4.8 | 6.4 | 0.00 | 0.00 | 0.00 | 83 | 1016.9 |
| 20260505070728 | 13 | 293 | 3.2 | 4.8 | 0.00 | 0.00 | 0.00 | 83 | 1016.9 |
| 20260505070224 | 13 | 292 | 3.2 | 3.2 | 0.00 | 0.00 | 0.00 | 83 | 1016.9 |
| 20260505065720 | 13 | 303 | 3.2 | 3.2 | 0.00 | 0.00 | 0.00 | 82 | 1016.9 |
| 20260505065217 | 13 | 295 | 3.2 | 3.2 | 0.00 | 0.00 | 0.00 | 81 | 1016.9 |
| 20260505064714 | 13 | 293 | 1.6 | 4.8 | 0.00 | 0.00 | 0.00 | 81 | 1017.1 |
| 20260505064212 | 13 | 280 | 1.6 | 3.2 | 0.00 | 0.00 | 0.00 | 82 | 1017.1 |
| 20260505063709 | 14 | 26 | 0.0 | 1.6 | 0.00 | 0.00 | 0.00 | 80 | 1017.1 |
| 20260505063205 | 14 | 278 | 1.6 | 3.2 | 0.00 | 0.00 | 0.00 | 80 | 1017.2 |
| 20260505062701 | 14 | 303 | 1.6 | 3.2 | 0.00 | 0.00 | 0.00 | 80 | 1017.2 |
| 20260505062159 | 14 | 275 | 3.2 | 3.2 | 0.00 | 0.00 | 0.00 | 80 | 1016.9 |
| 20260505061656 | 14 | 295 | 3.2 | 3.2 | 0.00 | 0.00 | 0.00 | 79 | 1017.2 |
| 20260505061154 | 14 | 292 | 3.2 | 3.2 | 0.00 | 0.00 | 0.00 | 77 | 1017.0 |
| 20260505060651 | 14 | 253 | 0.0 | 3.2 | 0.00 | 0.00 | 0.00 | 79 | 1017.1 |
| 20260505060147 | 15 | 294 | 1.6 | 4.8 | 0.00 | 0.00 | 0.00 | 76 | 1017.2 |
| 20260505055643 | 16 | 279 | 1.6 | 3.2 | 0.00 | 0.00 | 0.00 | 72 | 1017.3 |
| 20260505055140 | 16 | 221 | 1.6 | 3.2 | 0.00 | 0.00 | 0.00 | 74 | 1017.2 |
| 20260505054637 | 15 | 286 | 3.2 | 3.2 | 0.00 | 0.00 | 0.00 | 75 | 1017.1 |
| 20260505054135 | 15 | 278 | 3.2 | 4.8 | 0.00 | 0.00 | 0.00 | 76 | 1017.2 |
| 20260505053632 | 15 | 283 | 0.0 | 3.2 | 0.00 | 0.00 | 0.00 | 76 | 1017.2 |
| 20260505053128 | 15 | 294 | 3.2 | 3.2 | 0.00 | 0.00 | 0.00 | 76 | 1017.1 |
| 20260505052626 | 15 | 287 | 1.6 | 3.2 | 0.00 | 0.00 | 0.00 | 77 | 1017.1 |
| 20260505052123 | 15 | 289 | 3.2 | 4.8 | 0.00 | 0.00 | 0.00 | 76 | 1017.1 |
| 20260505051620 | 15 | 288 | 3.2 | 3.2 | 0.00 | 0.00 | 0.00 | 75 | 1017.0 |
| 20260505051118 | 15 | 303 | 3.2 | 4.8 | 0.00 | 0.00 | 0.00 | 74 | 1017.0 |
| 20260505050615 | 15 | 280 | 3.2 | 4.8 | 0.00 | 0.00 | 0.00 | 74 | 1017.1 |
| 20260505050114 | 15 | 314 | 3.2 | 4.8 | 0.00 | 0.00 | 0.00 | 77 | 1017.0 |
| 20260505041543 | 15 | 295 | 3.2 | 4.8 | 0.00 | 0.00 | 0.00 | 73 | 1017.2 |
| 20260505041041 | 16 | 286 | 3.2 | 3.2 | 0.00 | 0.00 | 0.00 | 75 | 1017.0 |
| 20260505040538 | 16 | 296 | 3.2 | 4.8 | 0.00 | 0.00 | 0.00 | 73 | 1017.0 |
| 20260505040035 | 16 | 299 | 3.2 | 4.8 | 0.00 | 0.00 | 0.00 | 71 | 1017.1 |
| 20260505035531 | 16 | 297 | 3.2 | 4.8 | 0.00 | 0.00 | 0.00 | 72 | 1017.0 |
| 20260505035028 | 16 | 295 | 3.2 | 3.2 | 0.00 | 0.00 | 0.00 | 73 | 1017.2 |
| 20260505034524 | 16 | 292 | 3.2 | 3.2 | 0.00 | 0.00 | 0.00 | 74 | 1016.9 |
| 20260505034021 | 16 | 289 | 3.2 | 4.8 | 0.00 | 0.00 | 0.00 | 72 | 1017.1 |
| 20260505033518 | 16 | 302 | 3.2 | 3.2 | 0.00 | 0.00 | 0.00 | 74 | 1017.2 |
| 20260505033016 | 16 | 284 | 3.2 | 4.8 | 0.00 | 0.00 | 0.00 | 71 | 1017.1 |
| 20260505032514 | 16 | 296 | 3.2 | 3.2 | 0.00 | 0.00 | 0.00 | 72 | 1016.9 |
| 20260505032010 | 16 | 301 | 3.2 | 4.8 | 0.00 | 0.00 | 0.00 | 71 | 1017.0 |
| 20260505031508 | 16 | 264 | 1.6 | 3.2 | 0.00 | 0.00 | 0.00 | 71 | 1016.9 |
| 20260505031004 | 16 | 311 | 1.6 | 3.2 | 0.00 | 0.00 | 0.00 | 69 | 1016.9 |
| 20260505030501 | 16 | 294 | 3.2 | 3.2 | 0.00 | 0.00 | 0.00 | 69 | 1017.0 |
| 20260505025955 | 17 | 243 | 1.6 | 3.2 | 0.00 | 0.00 | 0.00 | 68 | 1017.0 |
| 20260505025453 | 17 | 297 | 3.2 | 3.2 | 0.00 | 0.00 | 0.00 | 66 | 1017.2 |
| 20260505024952 | 17 | 299 | 3.2 | 4.8 | 0.00 | 0.00 | 0.00 | 68 | 1017.0 |
| 20260505024448 | 17 | 295 | 3.2 | 3.2 | 0.00 | 0.00 | 0.00 | 67 | 1017.1 |
| 20260505023946 | 17 | 308 | 3.2 | 4.8 | 0.00 | 0.00 | 0.00 | 65 | 1017.2 |
| 20260505023442 | 17 | 280 | 3.2 | 3.2 | 0.00 | 0.00 | 0.00 | 67 | 1017.1 |
| 20260505022940 | 17 | 290 | 3.2 | 3.2 | 0.00 | 0.00 | 0.00 | 68 | 1017.1 |
| 20260505022437 | 17 | 294 | 3.2 | 3.2 | 0.00 | 0.00 | 0.00 | 66 | 1017.1 |
| 20260505021934 | 17 | 292 | 3.2 | 3.2 | 0.00 | 0.00 | 0.00 | 69 | 1017.1 |
| 20260505021431 | 17 | 308 | 3.2 | 4.8 | 0.00 | 0.00 | 0.00 | 67 | 1017.0 |
| 20260505020926 | 17 | 301 | 3.2 | 3.2 | 0.00 | 0.00 | 0.00 | 68 | 1016.9 |
| 20260505020422 | 18 | 301 | 3.2 | 3.2 | 0.00 | 0.00 | 0.00 | 67 | 1016.9 |
| 20260505015919 | 17 | 299 | 3.2 | 4.8 | 0.00 | 0.00 | 0.00 | 66 | 1016.8 |
| 20260505015416 | 18 | 277 | 4.8 | 6.4 | 0.00 | 0.00 | 0.00 | 62 | 1016.8 |
| 20260505014914 | 18 | 290 | 3.2 | 3.2 | 0.00 | 0.00 | 0.00 | 64 | 1016.9 |
| 20260505014410 | 19 | 289 | 1.6 | 3.2 | 0.00 | 0.00 | 0.00 | 65 | 1016.8 |
| 20260505013907 | 19 | 301 | 3.2 | 3.2 | 0.00 | 0.00 | 0.00 | 62 | 1016.6 |
| 20260505013404 | 19 | 270 | 1.6 | 3.2 | 0.00 | 0.00 | 0.00 | 62 | 1016.7 |
| 20260505012902 | 20 | 231 | 1.6 | 3.2 | 0.00 | 0.00 | 0.00 | 64 | 1016.6 |
| 20260505012400 | 20 | 271 | 0.0 | 3.2 | 0.00 | 0.00 | 0.00 | 61 | 1016.7 |
| 20260505011856 | 20 | 291 | 3.2 | 3.2 | 0.00 | 0.00 | 0.00 | 60 | 1016.7 |
| 20260505011353 | 20 | 339 | 0.0 | 3.2 | 0.00 | 0.00 | 0.00 | 61 | 1016.5 |
| 20260505010849 | 21 | 163 | 0.0 | 3.2 | 0.00 | 0.00 | 0.00 | 62 | 1016.6 |
| 20260505010345 | 21 | 188 | 4.8 | 6.4 | 0.00 | 0.00 | 0.00 | 61 | 1016.6 |
| 20260505005841 | 21 | 178 | 4.8 | 9.7 | 0.00 | 0.00 | 0.00 | 60 | 1016.3 |
| 20260505005338 | 22 | 192 | 6.4 | 9.7 | 0.00 | 0.00 | 0.00 | 62 | 1016.4 |
| 20260505004836 | 22 | 183 | 8.0 | 11.3 | 0.00 | 0.00 | 0.00 | 56 | 1016.2 |
| 20260505004332 | 22 | 190 | 9.7 | 11.3 | 0.00 | 0.00 | 0.00 | 57 | 1016.3 |
| 20260505003829 | 22 | 184 | 9.7 | 11.3 | 0.00 | 0.00 | 0.00 | 57 | 1016.3 |
| 20260505003326 | 22 | 194 | 9.7 | 11.3 | 0.00 | 0.00 | 0.00 | 60 | 1016.3 |
| 20260505002822 | 22 | 181 | 8.0 | 11.3 | 0.00 | 0.00 | 0.00 | 55 | 1016.2 |
| 20260505002319 | 23 | 185 | 9.7 | 12.9 | 0.00 | 0.00 | 0.00 | 61 | 1016.3 |
| 20260505001818 | 23 | 180 | 9.7 | 12.9 | 0.00 | 0.00 | 0.00 | 59 | 1016.1 |
| 20260505001314 | 23 | 183 | 12.9 | 17.7 | 0.00 | 0.00 | 0.00 | 53 | 1016.1 |
| 20260505000812 | 23 | 185 | 11.3 | 16.1 | 0.00 | 0.00 | 0.00 | 55 | 1016.0 |
| 20260505000310 | 23 | 181 | 11.3 | 14.5 | 0.00 | 0.00 | 0.00 | 55 | 1016.0 |
| 20260504235806 | 23 | 190 | 12.9 | 14.5 | 0.00 | 0.00 | 0.00 | 55 | 1016.0 |
| 20260504235304 | 23 | 187 | 12.9 | 16.1 | 0.00 | 0.00 | 0.00 | 52 | 1016.0 |
| 20260504234759 | 23 | 201 | 12.9 | 14.5 | 0.00 | 0.00 | 0.00 | 56 | 1015.9 |
| 20260504234257 | 23 | 177 | 12.9 | 16.1 | 0.00 | 0.00 | 0.00 | 55 | 1016.0 |
| 20260504233753 | 23 | 189 | 14.5 | 16.1 | 0.00 | 0.00 | 0.00 | 58 | 1016.1 |
| 20260504233249 | 23 | 198 | 11.3 | 17.7 | 0.00 | 0.00 | 0.00 | 56 | 1016.1 |
| 20260504232746 | 23 | 222 | 6.4 | 14.5 | 0.00 | 0.00 | 0.00 | 59 | 1016.1 |
| 20260504232243 | 23 | 189 | 14.5 | 17.7 | 0.00 | 0.00 | 0.00 | 60 | 1016.0 |
| 20260504231740 | 23 | 189 | 12.9 | 16.1 | 0.00 | 0.00 | 0.00 | 56 | 1016.0 |
| 20260504231236 | 24 | 186 | 14.5 | 16.1 | 0.00 | 0.00 | 0.00 | 59 | 1016.0 |
| 20260504230732 | 24 | 175 | 12.9 | 17.7 | 0.00 | 0.00 | 0.00 | 56 | 1016.2 |
| 20260504230231 | 24 | 183 | 11.3 | 16.1 | 0.00 | 0.00 | 0.00 | 60 | 1016.1 |
| 20260504225729 | 24 | 184 | 12.9 | 14.5 | 0.00 | 0.00 | 0.00 | 55 | 1016.1 |
| 20260504225225 | 24 | 168 | 14.5 | 16.1 | 0.00 | 0.00 | 0.00 | 54 | 1016.1 |
| 20260504224722 | 24 | 169 | 17.7 | 20.9 | 0.00 | 0.00 | 0.00 | 55 | 1015.9 |
| 20260504224220 | 24 | 163 | 16.1 | 22.5 | 0.00 | 0.00 | 0.00 | 56 | 1016.0 |
| 20260504223716 | 24 | 195 | 8.0 | 17.7 | 0.00 | 0.00 | 0.00 | 53 | 1015.9 |
| 20260504223211 | 25 | 175 | 14.5 | 14.5 | 0.00 | 0.00 | 0.00 | 56 | 1016.0 |
| 20260504222709 | 24 | 161 | 16.1 | 17.7 | 0.00 | 0.00 | 0.00 | 57 | 1016.0 |
| 20260504222206 | 25 | 175 | 16.1 | 17.7 | 0.00 | 0.00 | 0.00 | 55 | 1015.9 |
| 20260504221703 | 25 | 179 | 12.9 | 16.1 | 0.00 | 0.00 | 0.00 | 56 | 1016.0 |
| 20260504221200 | 25 | 181 | 11.3 | 14.5 | 0.00 | 0.00 | 0.00 | 55 | 1016.1 |
| 20260504220656 | 24 | 187 | 14.5 | 16.1 | 0.00 | 0.00 | 0.00 | 58 | 1016.1 |
| 20260504220154 | 24 | 201 | 6.4 | 11.3 | 0.00 | 0.00 | 0.00 | 53 | 1016.0 |
| 20260504215650 | 25 | 182 | 6.4 | 12.9 | 0.00 | 0.00 | 0.00 | 59 | 1016.1 |
| 20260504215148 | 25 | 206 | 9.7 | 11.3 | 0.00 | 0.00 | 0.00 | 60 | 1015.9 |
| 20260504214643 | 25 | 172 | 9.7 | 12.9 | 0.00 | 0.00 | 0.00 | 55 | 1016.0 |
| 20260504214140 | 25 | 173 | 11.3 | 16.1 | 0.00 | 0.00 | 0.00 | 55 | 1016.0 |
| 20260504213636 | 25 | 152 | 11.3 | 16.1 | 0.00 | 0.00 | 0.00 | 58 | 1016.1 |
| 20260504213133 | 25 | 169 | 8.0 | 11.3 | 0.00 | 0.00 | 0.00 | 54 | 1015.9 |
| 20260504212630 | 25 | 178 | 12.9 | 12.9 | 0.00 | 0.00 | 0.00 | 53 | 1015.9 |
| 20260504212127 | 25 | 161 | 14.5 | 14.5 | 0.00 | 0.00 | 0.00 | 56 | 1016.0 |
| 20260504211624 | 25 | 164 | 11.3 | 12.9 | 0.00 | 0.00 | 0.00 | 53 | 1016.1 |
| 20260504211120 | 25 | 187 | 9.7 | 12.9 | 0.00 | 0.00 | 0.00 | 53 | 1016.0 |
| 20260504210618 | 25 | 177 | 3.2 | 11.3 | 0.00 | 0.00 | 0.00 | 56 | 1016.1 |
| 20260504210114 | 25 | 185 | 3.2 | 6.4 | 0.00 | 0.00 | 0.00 | 51 | 1016.2 |
| 20260504205612 | 25 | 202 | 6.4 | 12.9 | 0.00 | 0.00 | 0.00 | 51 | 1016.3 |
| 20260504205110 | 25 | 180 | 8.0 | 11.3 | 0.00 | 0.00 | 0.00 | 50 | 1016.4 |
| 20260504204608 | 26 | 177 | 4.8 | 9.7 | 0.00 | 0.00 | 0.00 | 50 | 1016.3 |
| 20260504204106 | 25 | 187 | 9.7 | 12.9 | 0.00 | 0.00 | 0.00 | 55 | 1016.4 |
| 20260504203605 | 25 | 186 | 3.2 | 6.4 | 0.00 | 0.00 | 0.00 | 50 | 1016.3 |
| 20260504203102 | 25 | 175 | 6.4 | 9.7 | 0.00 | 0.00 | 0.00 | 51 | 1016.5 |
| 20260504202556 | 25 | 181 | 6.4 | 12.9 | 0.00 | 0.00 | 0.00 | 49 | 1016.4 |
| 20260504202054 | 25 | 176 | 12.9 | 14.5 | 0.00 | 0.00 | 0.00 | 55 | 1016.5 |
| 20260504201551 | 26 | 184 | 6.4 | 6.4 | 0.00 | 0.00 | 0.00 | 52 | 1016.5 |
| 20260504201049 | 25 | 207 | 6.4 | 9.7 | 0.00 | 0.00 | 0.00 | 52 | 1016.5 |
| 20260504200544 | 25 | 197 | 6.4 | 9.7 | 0.00 | 0.00 | 0.00 | 51 | 1016.9 |
| 20260504200042 | 25 | 254 | 4.8 | 9.7 | 0.00 | 0.00 | 0.00 | 50 | 1016.7 |
| 20260504195538 | 25 | 165 | 8.0 | 11.3 | 0.00 | 0.00 | 0.00 | 52 | 1016.8 |
| 20260504195034 | 26 | 156 | 0.0 | 1.6 | 0.00 | 0.00 | 0.00 | 48 | 1016.8 |
| 20260504194531 | 25 | 199 | 6.4 | 11.3 | 0.00 | 0.00 | 0.00 | 49 | 1016.9 |
| 20260504194026 | 25 | 196 | 6.4 | 9.7 | 0.00 | 0.00 | 0.00 | 51 | 1017.0 |
| 20260504193523 | 24 | 192 | 6.4 | 11.3 | 0.00 | 0.00 | 0.00 | 54 | 1017.0 |
| 20260504193022 | 25 | 189 | 8.0 | 9.7 | 0.00 | 0.00 | 0.00 | 52 | 1017.2 |
| 20260504192520 | 25 | 183 | 6.4 | 9.7 | 0.00 | 0.00 | 0.00 | 51 | 1017.4 |
| 20260504192018 | 25 | 161 | 3.2 | 14.5 | 0.00 | 0.00 | 0.00 | 47 | 1017.5 |
| 20260504191515 | 25 | 216 | 3.2 | 6.4 | 0.00 | 0.00 | 0.00 | 49 | 1017.4 |
| 20260504191011 | 24 | 185 | 4.8 | 12.9 | 0.00 | 0.00 | 0.00 | 50 | 1017.6 |
| 20260504190507 | 25 | 176 | 1.6 | 6.4 | 0.00 | 0.00 | 0.00 | 50 | 1017.6 |
| 20260504190003 | 24 | 182 | 4.8 | 6.4 | 0.00 | 0.00 | 0.00 | 50 | 1017.6 |
| 20260504185501 | 24 | 181 | 9.7 | 11.3 | 0.00 | 0.00 | 0.00 | 51 | 1017.6 |
| 20260504184957 | 24 | 159 | 3.2 | 11.3 | 0.00 | 0.00 | 0.00 | 49 | 1017.8 |
| 20260504184453 | 24 | 184 | 3.2 | 6.4 | 0.00 | 0.00 | 0.00 | 50 | 1017.6 |
| 20260504183948 | 24 | 164 | 4.8 | 9.7 | 0.00 | 0.00 | 0.00 | 51 | 1017.8 |
| 20260504183446 | 23 | 183 | 6.4 | 11.3 | 0.00 | 0.00 | 0.00 | 50 | 1017.9 |
| 20260504182944 | 24 | 187 | 9.7 | 11.3 | 0.00 | 0.00 | 0.00 | 57 | 1018.0 |
| 20260504182440 | 24 | 184 | 4.8 | 9.7 | 0.00 | 0.00 | 0.00 | 52 | 1017.9 |
| 20260504181938 | 24 | 167 | 4.8 | 6.4 | 0.00 | 0.00 | 0.00 | 51 | 1018.0 |
| 20260504181435 | 24 | 187 | 6.4 | 11.3 | 0.00 | 0.00 | 0.00 | 51 | 1018.2 |
| 20260504180933 | 23 | 187 | 6.4 | 9.7 | 0.00 | 0.00 | 0.00 | 51 | 1018.1 |
| 20260504180432 | 23 | 193 | 6.4 | 9.7 | 0.00 | 0.00 | 0.00 | 53 | 1018.2 |
| 20260504175930 | 23 | 203 | 6.4 | 11.3 | 0.00 | 0.00 | 0.00 | 51 | 1018.2 |
| 20260504175426 | 24 | 195 | 9.7 | 12.9 | 0.00 | 0.00 | 0.00 | 55 | 1018.2 |
| 20260504174924 | 23 | 180 | 4.8 | 4.8 | 0.00 | 0.00 | 0.00 | 51 | 1018.3 |
| 20260504174422 | 23 | 177 | 4.8 | 11.3 | 0.00 | 0.00 | 0.00 | 51 | 1018.3 |
| 20260504173919 | 23 | 174 | 4.8 | 12.9 | 0.00 | 0.00 | 0.00 | 52 | 1018.5 |
| 20260504173415 | 23 | 185 | 14.5 | 16.1 | 0.00 | 0.00 | 0.00 | 58 | 1018.4 |
| 20260504172913 | 23 | 192 | 8.0 | 9.7 | 0.00 | 0.00 | 0.00 | 58 | 1018.8 |
| 20260504172408 | 23 | 188 | 6.4 | 11.3 | 0.00 | 0.00 | 0.00 | 55 | 1018.8 |
| 20260504171905 | 22 | 195 | 4.8 | 11.3 | 0.00 | 0.00 | 0.00 | 53 | 1018.9 |
| 20260504171402 | 22 | 182 | 8.0 | 14.5 | 0.00 | 0.00 | 0.00 | 54 | 1018.9 |
| 20260504170859 | 22 | 187 | 8.0 | 11.3 | 0.00 | 0.00 | 0.00 | 56 | 1019.0 |
| 20260504170355 | 22 | 188 | 14.5 | 14.5 | 0.00 | 0.00 | 0.00 | 60 | 1018.9 |
| 20260504160314 | 20 | 189 | 11.3 | 12.9 | 0.00 | 0.00 | 0.00 | 59 | 1019.8 |
| 20260504150739 | 19 | 190 | 6.4 | 9.7 | 0.00 | 0.00 | 0.00 | 59 | 1020.5 |
| 20260504150236 | 19 | 202 | 1.6 | 4.8 | 0.00 | 0.00 | 0.00 | 58 | 1020.8 |
| 20260504141205 | 17 | 172 | 3.2 | 4.8 | 0.00 | 0.00 | 0.00 | 62 | 1021.0 |
| 20260504140703 | 16 | 187 | 3.2 | 4.8 | 0.00 | 0.00 | 0.00 | 65 | 1021.1 |
| 20260504140158 | 16 | 175 | 4.8 | 6.4 | 0.00 | 0.00 | 0.00 | 65 | 1021.2 |
| 20260504130626 | 15 | 162 | 1.6 | 6.4 | 0.00 | 0.00 | 0.00 | 70 | 1021.2 |
| 20260504130123 | 13 | 180 | 4.8 | 6.4 | 0.00 | 0.00 | 0.00 | 72 | 1021.1 |